Regional Weather Roundup
Issued by NWS

Home | Current Version | Previous Version | Graphics & Text | Print | Product List | Glossary On
Versions: 1 2 3 4 5 6 7 8 9 10 11 12 13 14 15 16 17 18 19 20 21 22 23 24 25 26 27 28 29 30 31 32 33 34 35 36 37 38 39 40 41 42 43 44 45 46 47 48 49 50
000
ASUS45 KSLC 271910
RWRUT

UTAH REGIONAL WEATHER ROUNDUP
NATIONAL WEATHER SERVICE SALT LAKE CITY UT
100 PM MDT WED MAY 27 2015

UTZ001>011-023>025-272000-

NORTHERN UTAH

CITY           SKY/WX    TMP DP  RH WIND       PRES   REMARKS
BRIGHAM CITY   PTSUNNY   61  48  62 SW10      30.10S
HILL AFB       PTSUNNY   62  50  66 W8        30.10R
LOGAN          MOSUNNY   58  51  78 N8        30.09S
OGDEN          PTSUNNY   62  50  64 MISG      30.09S
PROVO AIRPORT  PTSUNNY   66  46  48 VRB5      30.09F
SALT LAKE CITY MOSUNNY   64  50  60 VRB5      30.08R
VERNAL         MOSUNNY   62  47  57 E8        30.11F
WENDOVER       MOSUNNY   63  52  67 SE7       30.07F
HEBER CITY     PTSUNNY   64  39  39 SW13G24   30.09F
WEST JORDAN    MOSUNNY   63  52  67 CALM      30.10S

$$

UTZ012>022-026-027-272000-

SOUTHERN/CENTRAL UTAH

CITY           SKY/WX    TMP DP  RH WIND       PRES   REMARKS
BLANDING       MOSUNNY   69  42  37 S5        30.22F
BRYCE CANYON   MOSUNNY   61  38  42 SE14G22   30.22F
CEDAR CITY     SUNNY     72  36  26 SW14      30.09F
DELTA          CLOUDY    68  41  36 NW5       30.09F
HANKSVILLE     SUNNY     73  39  29 E5        30.08F
MILFORD        MOSUNNY   72  42  34 S13       30.07F
MOAB/CYNLANDS  SUNNY     74  43  32 VRB3      30.06F
PRICE          MOSUNNY   66  41  40 VRB7      30.13F
ST GEORGE      MOCLDY    82  37  20 CALM      29.99F

$$

REGIONAL REPORTS     COLORADO/ARIZONA

CITY           SKY/WX    TMP DP  RH WIND       PRES   REMARKS
CRAIG, CO      PTSUNNY   65  41  41 W9        30.14F
GRAND JUNCTION MOSUNNY   70  46  42 VRB5      30.09F
RIFLE          MOSUNNY   69  45  41 NE6       30.12F
MONTROSE       MOSUNNY   70  41  34 MISG      30.13F
CORTEZ         SUNNY     72  39  30 SW8       30.14F
PAGE, AZ       MOSUNNY   76  43  30 VRB6      30.06F
GRAND CANYON   PTSUNNY   68  21  16 MISG      30.19F
KINGMAN        SUNNY     82  32  16 W8        30.02S
FLAGSTAFF      PTSUNNY   64  26  23 S9G18     30.20F

$$

REGIONAL REPORTS    NEVADA/IDAHO/WYOMING

CITY           SKY/WX    TMP DP  RH WIND       PRES   REMARKS
LAS VEGAS, NV  MOSUNNY   88  34  14 VRB6      29.90F
ELY            PTSUNNY   53  47  79 NE9       30.16R
ELKO           SUNNY     66  47  50 SW9       30.05F
POCATELLO, ID  PTSUNNY   65  49  56 VRB6      30.05S
BURLEY         SUNNY     67  47  48 VRB7      30.02S
EVANSTON, WY   CLOUDY    55  44  66 W17       30.14F
ROCK SPRINGS   MOSUNNY   59  39  47 S5        30.13F
KEMMERER       CLOUDY    54  41  62 W13       30.15S

$$


USA.gov is the U.S. government's official web portal to all federal, state and local government web resources and services.